Regional Weather Roundup
Issued by NWS Austin/San Antonio, TX

Current Version | Previous Version | Text Only | Print | Product List | Glossary On
Versions: 1 2 3 4 5 6 7 8 9 10 11 12 13 14 15 16 17 18 19 20 21 22 23 24 25 26 27 28 29 30 31 32 33 34 35 36 37 38 39 40 41 42 43 44 45 46 47 48 49 50
000
ASUS44 KEWX 172310
RWREWX
SOUTH TEXAS REGIONAL WEATHER ROUNDUP
NATIONAL WEATHER SERVICE AUSTIN/SAN ANTONIO TX
600 PM CDT THU JUN 17 2021

NOTE: "FAIR" INDICATED FEW OR NO CLOUDS BELOW 12,000 FEET WITH NO
SIGNIFICANT WEATHER AND/OR OBSTRUCTIONS TO VISIBILITY.

* - THESE STATIONS ARE NOT NWS OR FAA STATIONS...AND ARE NOT SUBJECT
    TO NWS AND FAA QUALITY CONTROL.

TXZ171-172-183>190-180000-
TEXAS HILL COUNTRY AND EDWARDS PLATEAU

CITY           SKY/WX    TMP DP  RH WIND       PRES   REMARKS
JUNCTION       MOSUNNY   95  53  24 SE7       29.99F HX  92
*LLANO         MOSUNNY   95  66  38 E6        29.96S HX  98
BURNET         SUNNY     94  60  32 E6        30.00S HX  94
*HORSESHOE BAY MOSUNNY   95  57  27 E9        29.97F HX  93
*LAGO VISTA    MOSUNNY   98  62  30 E6        29.98F HX  98
*KERRVILLE     PTSUNNY   88  69  53 S8        30.00F HX  91
*FREDERICKSBRG PTSUNNY   89  60  37 SE6       30.00F
*ROCKSPRINGS     N/A     91  61  35 MISG      30.06F HX  91
*BOERNE        SUNNY     90  61  37 SE7       29.99F
*CASTROVILLE   SUNNY     96  60  30 SE6       29.97F HX  96
HONDO          SUNNY     93  66  40 SE12G20   29.96F HX  96
*UVALDE        SUNNY     92  65  40 SE10      29.97F HX  93
DEL RIO        MOSUNNY  100  62  28 SE14G22   29.92F HX 101
*LAUGHLIN AFB  SUNNY     98  58  26 SE12G18   29.92F HX  97
*SPOFFORD      MOSUNNY   96  60  30 E9        29.87F HX  96
*EAGLE PASS    SUNNY     95  59  30 E10G16    29.92F HX  94
CARRIZO SPRGS  MOSUNNY   97  59  28 E8G16     29.91F HX  96
$$

TXZ173-191>194-202-209-217>225-228-180000-
CENTRAL AND SOUTH CENTRAL TEXAS

CITY           SKY/WX    TMP DP  RH WIND       PRES   REMARKS
GEORGETOWN     SUNNY     95  63  34 E6        29.97F HX  96
*TAYLOR        SUNNY     96  64  34 SE5       29.94F HX  98
AUSTIN/BERGSTM MOSUNNY   94  64  37 SE8       29.93F HX  95
AUSTIN/MABRY   SUNNY     96  61  31 VRB3      29.95F HX  96
*PFLUGERVILLE  SUNNY     95  61  31 CALM      29.93F HX  95
SAN MARCOS     SUNNY     93  68  43 SE6       29.95F HX  97
NEW BRAUNFELS  SUNNY     94  68  42 VRB7      29.94F HX  98
*RANDOLPH AFB  SUNNY     93  66  41 E8        29.94F HX  95
*SEGUIN        SUNNY     92  67  42 S6        29.97F HX  95
SAN ANTONIO    MOSUNNY   93  64  38 SE9       29.95F HX  94
STINSON FIELD  SUNNY     97  67  37 E7        29.92F HX 101
*KELLY FIELD   SUNNY     94  65  39 SE6       29.93F HX  96
*PLEASANTON    SUNNY     95  66  38 E6        29.93F HX  99
*KENEDY        MOSUNNY   95  68  40 E9        29.93F HX  99
*LA GRANGE     LGT RAIN  90  75  61 CALM      29.92S HX  99
*GIDDINGS      PTSUNNY   84  74  70 CALM      29.95F HX  91
*GONZALES      PTSUNNY   94  70  46 E5        29.92F HX  99
$$

TXZ163>164-176>182-195>201-210>213-226-227-235-180000-
SOUTHEAST TEXAS

CITY           SKY/WX    TMP DP  RH WIND       PRES   REMARKS
COLLEGE STN    PTSUNNY   87  72  60 SE7       29.93F HX  93
*BRYAN         PTSUNNY   92  73  53 E8        29.95F HX 101
*CALDWELL      CLOUDY    87  72  60 SE9G20    29.95S HX  93
*CROCKETT      PTSUNNY   90  72  55 NE6       29.95F HX  96
*BRENHAM       PTSUNNY   89  72  58 N3        29.94F HX  96
HUNTSVILLE     SUNNY     92  70  48 E5        29.95F HX  97
CONROE         MOSUNNY   89  72  56 E9        29.94F HX  96
HOUSTON BUSH   MOSUNNY   92  71  50 NE9       29.93S HX  98
HOUSTON HOBBY  PTSUNNY   91  68  46 E10       29.92S HX  95
*HOUSTON SW AP MOSUNNY   90  70  52 E6        29.93F HX  96
PEARLAND       SUNNY     91  69  48 E8        29.94F HX  96
HOUSTON HOOKS  MOSUNNY   93  72  50 E10       29.93F HX 101
ELLINGTON FLD  MOSUNNY   90  70  51 E9        29.92F HX  95
SUGAR LAND     PTSUNNY   93  70  46 SE9       29.91F HX  99
*HOUSTON EXEC  NOT AVBL
*CLEVELAND MUN SUNNY     89  68  49 CALM      29.95F HX  92
*WHARTON         N/A     93  65  40 E8        29.92F HX  95
*COLUMBUS      FAIR      92  71  48 E3        29.93F HX  98
*EAGLE LAKE    NOT AVBL
$$

TXZ214>216-236>238-180000-
THE UPPER TEXAS COAST

CITY           SKY/WX    TMP DP  RH WIND       PRES   REMARKS
*ORANGE        SUNNY     91  57  32 CALM      29.95S
PORT ARTHUR    SUNNY     91  63  39 E13       29.92F HX  92
GALVESTON      SUNNY     89  65  44 E13       29.93F HX  91
ANGLETON       PTSUNNY   90  69  50 E8        29.92F HX  94
*BAY CITY      MOSUNNY   91  71  51 SE8       29.92S HX  97
PALACIOS       MOSUNNY   91  73  55 SE16      29.90F HX  99
$$

TXZ229>234-239>247-180000-
TEXAS COASTAL BEND AND RIO GRANDE PLAINS

CITY           SKY/WX    TMP DP  RH WIND       PRES   REMARKS
VICTORIA       PTSUNNY   87  76  69 SE10      29.91F THUNDER HX  97
*BEEVILLE      MOSUNNY   85  77  76 CALM      29.92F THUNDER HX  96
ROCKPORT       MOSUNNY   89  73  59 SE12      29.91S HX  97
*PORT ARANSAS  MOSUNNY   87  76  68 E8        29.93F HX  97
*PORT LAVACA   MOSUNNY   91  73  53 SE13      29.92F HX  99
*INGLESIDE     MOSUNNY   92  72  51 SE10      29.90F HX  99
CORPUS CHRISTI PTSUNNY   92  71  50 E12       29.91F HX  98
CORPUS NAS     PTSUNNY   90  72  55 E9        29.91F HX  97
*ROBSTOWN      MOSUNNY   94  69  43 E13G20    29.92S HX  99
ALICE          PTSUNNY   91  67  44 E9        29.91F HX  94
KINGSVILLE NAS PTSUNNY   91  72  53 E7        29.91F HX  98
COTULLA        MOSUNNY   97  61  30 E8        29.92F HX  97
LAREDO         MOSUNNY   95  63  34 E12       29.92S HX  96
$$

TXZ248>255-180000-
DEEP SOUTH TEXAS

CITY           SKY/WX    TMP DP  RH WIND       PRES   REMARKS
BROWNSVILLE    PTSUNNY   90  71  53 NE10G18   29.90S HX  96
PORT ISABEL    PTSUNNY   87  73  62 NE10      29.90S HX  94
HARLINGEN      PTSUNNY   88  73  61 E13       29.90S HX  95
*HEBBRONVILLE  PTSUNNY   88  58  36 SE12      29.95F
MCALLEN        PTSUNNY   90  69  50 NE10      29.91S HX  94
*WESLACO       PTSUNNY   89  70  53 E10       29.90S HX  93
FALFURRIAS     PTSUNNY   86  70  57 E10       29.92F HX  91
EDINBURG       PTSUNNY   90  73  56 E10       29.91S HX  97
*ZAPATA        PTSUNNY   96  61  31 E14       29.93S HX  97
$$

TXZ213>215-236>238-242>244-246-247-251-254-255-180000-
CMAN STATIONS

STATION/POSITION TIME  TEMP    WIND        PRES    WAVE
                       AIR SEA DIR/SP/G            HT/PER
                 (UTC) (F)     (DEG/KT/KT) (MB)    (FT/S)
NORTH JETTY/GLS  2230   85 87  110/ 14/ 17 1012.5
EAGLE POINT      2230   87 89  110/  8/  9 1013.0
MORGANS POINT    2230   88 86  130/  6/  8 1013.5
MISSION/ARANSAS  2200   88     110/ 10     1014.0
PORT O`CONNOR    2230   87 91   90/ 16/ 18 1012.7
PORT ARANSAS     2300   84 86   90/  6/  7   N/A
MALAQUITE BEACH  2230   89      50/  8/  9   N/A
BAFFIN BAY       2230   86 91   40/  9/ 11 1012.6
PORT ISABEL      2230   85 85   40/ 12/ 16 1013.5
$$



USA.gov is the U.S. government's official web portal to all federal, state and local government web resources and services.